When you browse on this site, cookies collect data to enhance your experience and personalize the content and advertising you see.
Visit our Privacy Policy to learn more. By continuing to use the site, you agree to this use of cookies and data.
  • In Hungary
  • List of Countries
  • For 7 days
  • Water Temperature
  • Weather Map
  • News
  • Weather Widgets
  • user-avatar
    Login

    Hourly Weather Kicman

    Today, 6 April, Monday

    Time Temperature Precipitation Wind Pressure Humidity
    00:00 +4°C° 0 mm 2 mps 750 mmHg 83%
    01:00 +3°C° 0 mm 2 mps 751 mmHg 83%
    02:00 +3°C° 0 mm 2 mps 751 mmHg 84%
    03:00 +2°C° 0 mm 2 mps 751 mmHg 86%
    04:00 +1°C° 0 mm 2 mps 751 mmHg 88%
    05:00 +2°C° 0 mm 1 mps 752 mmHg 88%
    06:00 +1°C° 0 mm 2 mps 752 mmHg 89%
    07:00 +1°C° 0 mm 2 mps 752 mmHg 91%
    08:00 +3°C° 0 mm 2 mps 753 mmHg 89%
    09:00 +4°C° 0 mm 3 mps 753 mmHg 81%
    10:00 +6°C° 0 mm 4 mps 753 mmHg 72%
    11:00 +7°C° 0 mm 5 mps 753 mmHg 67%
    12:00 +8°C° 0 mm 5 mps 754 mmHg 64%
    13:00 +9°C° 0 mm 5 mps 753 mmHg 63%
    14:00 +9°C° 0 mm 5 mps 753 mmHg 59%
    15:00 +10°C° 0 mm 5 mps 753 mmHg 58%
    16:00 +10°C° 0 mm 5 mps 752 mmHg 61%
    17:00 +9°C° 0 mm 5 mps 753 mmHg 65%
    18:00 +8°C° 0 mm 4 mps 752 mmHg 65%
    19:00 +8°C° 0 mm 3 mps 752 mmHg 73%
    20:00 +5°C° 0 mm 3 mps 752 mmHg 79%
    21:00 +4°C° 0 mm 3 mps 752 mmHg 83%
    22:00 +4°C° 0 mm 4 mps 752 mmHg 84%
    23:00 +3°C° 0 mm 4 mps 752 mmHg 85%

    Tomorrow, 7 April, Tuesday

    Time Temperature Precipitation Wind Pressure Humidity
    00:00 +3°C° 0 mm 4 mps 752 mmHg 85%
    01:00 +2°C° 0 mm 3 mps 751 mmHg 86%
    02:00 +2°C° 0 mm 3 mps 751 mmHg 88%
    03:00 +2°C° 0 mm 2 mps 751 mmHg 90%
    04:00 +2°C° 0 mm 2 mps 751 mmHg 90%
    05:00 +2°C° 0 mm 2 mps 752 mmHg 91%
    06:00 +1°C° 0 mm 2 mps 752 mmHg 90%
    07:00 +3°C° 0 mm 1 mps 752 mmHg 90%
    08:00 +5°C° 0 mm 1 mps 752 mmHg 90%
    09:00 +7°C° 0 mm 1 mps 752 mmHg 86%
    10:00 +9°C° 0 mm 1 mps 753 mmHg 82%
    11:00 +11°C° 0 mm 1 mps 753 mmHg 78%
    12:00 +12°C° 0 mm 1 mps 753 mmHg 73%
    13:00 +12°C° 0 mm 0 mps 753 mmHg 66%
    14:00 +13°C° 0 mm 0 mps 752 mmHg 64%
    15:00 +14°C° 0 mm 1 mps 752 mmHg 61%
    16:00 +14°C° 0 mm 1 mps 752 mmHg 60%
    17:00 +14°C° 0 mm 1 mps 752 mmHg 62%
    18:00 +14°C° 0 mm 1 mps 751 mmHg 65%
    19:00 +12°C° 0 mm 2 mps 751 mmHg 76%
    20:00 +10°C° 0 mm 2 mps 751 mmHg 81%
    21:00 +8°C° 0 mm 2 mps 751 mmHg 85%
    22:00 +8°C° 0 mm 2 mps 751 mmHg 85%
    23:00 +7°C° 0 mm 2 mps 751 mmHg 83%

    Day after tomorrow, 8 April, Wednesday

    Time Temperature Precipitation Wind Pressure Humidity
    00:00 +7°C° 0 mm 2 mps 751 mmHg 84%
    01:00 +6°C° 0 mm 2 mps 750 mmHg 83%
    02:00 +7°C° 0 mm 1 mps 750 mmHg 85%
    03:00 +7°C° 0 mm 1 mps 750 mmHg 86%
    04:00 +6°C° 0 mm 1 mps 749 mmHg 87%
    05:00 +6°C° 0 mm 1 mps 749 mmHg 88%
    06:00 +6°C° 0 mm 1 mps 749 mmHg 90%
    07:00 +5°C° 0 mm 1 mps 749 mmHg 92%
    08:00 +7°C° 0 mm 1 mps 749 mmHg 93%
    09:00 +9°C° 0 mm 1 mps 749 mmHg 87%
    10:00 +11°C° 0 mm 1 mps 749 mmHg 87%
    11:00 +13°C° 0 mm 1 mps 749 mmHg 79%
    12:00 +14°C° 0 mm 1 mps 749 mmHg 72%
    13:00 +15°C° 0 mm 2 mps 748 mmHg 68%
    14:00 +15°C° 0 mm 2 mps 748 mmHg 69%
    15:00 +15°C° 0 mm 2 mps 748 mmHg 70%
    16:00 +15°C° 0 mm 2 mps 747 mmHg 69%
    17:00 +14°C° 0 mm 3 mps 747 mmHg 71%
    18:00 +14°C° 0 mm 2 mps 747 mmHg 77%
    19:00 +13°C° 0 mm 1 mps 746 mmHg 80%
    20:00 +12°C° 0 mm 2 mps 746 mmHg 83%
    21:00 +12°C° 0 mm 2 mps 746 mmHg 80%
    22:00 +11°C° 0 mm 1 mps 746 mmHg 83%
    23:00 +10°C° 0 mm 1 mps 746 mmHg 86%

    9 April, Thursday

    Time Temperature Precipitation Wind Pressure Humidity
    00:00 +9°C° 0 mm 2 mps 746 mmHg 89%
    01:00 +8°C° 0 mm 2 mps 745 mmHg 94%
    02:00 +8°C° 0 mm 1 mps 745 mmHg 95%
    03:00 +8°C° 0 mm 1 mps 744 mmHg 95%
    04:00 +8°C° 0 mm 1 mps 744 mmHg 96%
    05:00 +7°C° 0 mm 1 mps 744 mmHg 96%
    06:00 +7°C° 0 mm 1 mps 744 mmHg 97%
    07:00 +7°C° 0 mm 1 mps 744 mmHg 97%
    08:00 +8°C° 0 mm 1 mps 744 mmHg 95%
    09:00 +11°C° 0 mm 1 mps 744 mmHg 89%
    10:00 +11°C° 0 mm 0 mps 744 mmHg 84%
    11:00 +13°C° 0 mm 0 mps 743 mmHg 76%
    12:00 +14°C° 0 mm 0 mps 743 mmHg 69%
    13:00 +14°C° 0 mm 0 mps 743 mmHg 66%
    14:00 +15°C° 0 mm 0 mps 742 mmHg 68%
    15:00 +15°C° 0 mm 0 mps 742 mmHg 68%
    16:00 +15°C° 0 mm 0 mps 742 mmHg 70%
    17:00 +15°C° 0 mm 0 mps 741 mmHg 71%
    18:00 +16°C° 0 mm 1 mps 741 mmHg 77%
    19:00 +15°C° 0 mm 1 mps 741 mmHg 81%
    20:00 +14°C° 0 mm 2 mps 741 mmHg 80%
    21:00 +13°C° 0 mm 2 mps 740 mmHg 86%
    22:00 +12°C° 0 mm 2 mps 740 mmHg 96%
    23:00 +10°C° 0 mm 2 mps 740 mmHg 99%

    10 April, Friday

    Time Temperature Precipitation Wind Pressure Humidity
    00:00 +10°C° 0 mm 2 mps 740 mmHg 100%
    01:00 +9°C° 0 mm 2 mps 739 mmHg 99%
    02:00 +8°C° 0 mm 2 mps 739 mmHg 95%
    03:00 +7°C° 0 mm 2 mps 739 mmHg 95%
    04:00 +7°C° 0 mm 2 mps 739 mmHg 93%
    05:00 +6°C° 0 mm 2 mps 739 mmHg 91%
    06:00 +6°C° 0 mm 2 mps 739 mmHg 93%
    07:00 +5°C° 0 mm 3 mps 739 mmHg 95%
    08:00 +8°C° 0 mm 4 mps 739 mmHg 93%
    09:00 +10°C° 0 mm 5 mps 740 mmHg 91%
    10:00 +12°C° 0 mm 5 mps 740 mmHg 93%
    11:00 +10°C° 0 mm 6 mps 740 mmHg 95%
    12:00 +12°C° 0 mm 5 mps 741 mmHg 92%
    13:00 +13°C° 0 mm 6 mps 740 mmHg 87%
    14:00 +11°C° 0.4 mm 6 mps 740 mmHg 91%
    15:00 +12°C° 0 mm 7 mps 741 mmHg 79%
    16:00 +11°C° 0 mm 7 mps 741 mmHg 80%
    17:00 +10°C° 0 mm 6 mps 741 mmHg 80%
    18:00 +9°C° 0 mm 5 mps 741 mmHg 83%
    19:00 +8°C° 0 mm 5 mps 741 mmHg 88%
    20:00 +7°C° 0 mm 4 mps 742 mmHg 93%
    21:00 +7°C° 0 mm 4 mps 742 mmHg 94%
    22:00 +7°C° 0 mm 3 mps 742 mmHg 96%
    23:00 +5°C° 0 mm 3 mps 742 mmHg 98%

    11 April, Saturday

    Time Temperature Precipitation Wind Pressure Humidity
    00:00 +5°C° 0 mm 2 mps 742 mmHg 98%
    01:00 +5°C° 0 mm 2 mps 742 mmHg 99%
    02:00 +4°C° 0 mm 2 mps 742 mmHg 99%
    03:00 +4°C° 0 mm 2 mps 742 mmHg 100%
    04:00 +3°C° 0 mm 2 mps 742 mmHg 100%
    05:00 +3°C° 0 mm 2 mps 742 mmHg 100%
    06:00 +4°C° 0 mm 1 mps 742 mmHg 100%
    07:00 +3°C° 0 mm 0 mps 743 mmHg 100%
    08:00 +4°C° 0 mm 0 mps 743 mmHg 99%
    09:00 +7°C° 0 mm 1 mps 743 mmHg 97%
    10:00 +8°C° 0 mm 2 mps 743 mmHg 96%
    11:00 +10°C° 0 mm 1 mps 743 mmHg 88%
    12:00 +10°C° 0 mm 0 mps 743 mmHg 83%
    13:00 +10°C° 0 mm 0 mps 743 mmHg 78%
    14:00 +11°C° 0 mm 0 mps 742 mmHg 77%
    15:00 +12°C° 0 mm 1 mps 742 mmHg 76%
    16:00 +12°C° 0 mm 1 mps 742 mmHg 74%
    17:00 +12°C° 0 mm 1 mps 741 mmHg 71%
    18:00 +12°C° 0 mm 1 mps 741 mmHg 74%
    19:00 +11°C° 0 mm 1 mps 741 mmHg 82%
    20:00 +10°C° 0 mm 2 mps 741 mmHg 91%
    21:00 +9°C° 0 mm 3 mps 741 mmHg 93%
    22:00 +8°C° 0 mm 2 mps 740 mmHg 96%
    23:00 +8°C° 0 mm 3 mps 740 mmHg 95%
    Show more